Regional Weather Roundup
Issued by NWS

Home | Current Version | Previous Version | Text Only | Print | Product List | Glossary Off
Versions: 1 2 3 4 5 6 7 8 9 10 11 12 13 14 15 16 17 18 19 20 21 22 23 24 25 26 27 28 29 30 31 32 33 34 35 36 37 38 39 40 41 42 43 44 45 46 47 48 49 50

000
ASUS45 KBOI 250410
RWRID
WEATHER ROUNDUP FOR IDAHO
NATIONAL WEATHER SERVICE BOISE ID
1000 PM MDT THU JUL 24 2014

NOTE: "FAIR" INDICATES FEW OR NO CLOUDS BELOW 12000 FEET
WITH NO SIGNIFICANT WEATHER AND/OR OBSTRUCTIONS TO VISIBILITY

IDZ012-014-250500-
SOUTHWEST IDAHO


CITY           SKY/WX    TMP DP  RH WIND       PRES   REMARKS
BOISE          CLEAR     70  29  21 NW6       30.06S
CALDWELL       CLEAR     68  34  28 W5        30.07S
MOUNTAIN HOME  CLEAR     66  24  20 W8        30.06R
$$

IDZ016-017-250500-
SOUTHCENTRAL IDAHO


CITY           SKY/WX    TMP DP  RH WIND       PRES   REMARKS
BURLEY         CLEAR     59  39  47 S9        30.08R
JEROME         CLEAR     58  27  30 W7        30.07S
TWIN FALLS     CLEAR     63  25  23 SW10      30.09R
$$

IDZ019>023-250500-
SOUTHEAST IDAHO


CITY           SKY/WX    TMP DP  RH WIND       PRES   REMARKS
IDAHO FALLS    CLEAR     66  36  32 S23G30    30.05R
POCATELLO      CLEAR     66  31  27 SW20      30.09R
REXBURG        CLEAR     65  29  25 S13       30.08R
$$

IDZ006-010-011-018-031-032-250500-
CENTRAL IDAHO MOUNTAINS


CITY           SKY/WX    TMP DP  RH WIND       PRES   REMARKS
MCCALL         CLEAR     59  27  29 W3        30.16R
HAILEY         CLEAR     57  36  44 SE12      30.13R
STANLEY          N/A     47  21  35 CALM      30.20R
SALMON         CLEAR     70  30  23 N15G29    30.01R
CHALLIS        CLEAR     62  28  27 E5        30.08R
$$

IDZ002-004-006-007-026-250500-
NORTHERN IDAHO


CITY           SKY/WX    TMP DP  RH WIND       PRES   REMARKS
LEWISTON       CLEAR     71  41  33 W14G21    30.07R
LOWELL           N/A     61  47  59 CALM      30.11R
COEUR D`ALENE  MOCLDY    63  45  51 SW7       30.07R
MULLAN PASS    MOCLDY    45  37  73 VRB5      30.19R
$$


USA.gov is the U.S. government's official web portal to all federal, state and local government web resources and services.